Погода в Ленске

Погода в Ленске : погода сейчас, прогноз погоды и архив. Всё, что Вы хотите узнать о погоде в Ленске!

Хотите узнать прогноз погоды в Ленске? Тогда Вам сюда: Погода в Ленске

Поиск расширенной информации на нашем сайте:

Другие новости

Новости СМИ2

Главная страница сайта

Новости сайта

02.10.2013

Напоминаем, что на нашем новом сайте вы можете получить высокодетализированные прогнозы погоды по пунктам России, СНГ и мира (включающие важные для авиации метеовеличины, такие как направление и скорость ветра, видимость, явления погоды, количество и форма облачности, нижняя и верхняя граница облачности), а также ознакомиться с разнообразными материалами по авиационной метеорологии и подборкой полезных ссылок на эту тему.

Сайт Метеоцентр.Азия посвящён разработке технологий оптимизации авиаметеорологического обслуживания, включая проектирование и перспективное создание нескольких автоматизированных авиаметеорологических систем:
- система выпуска высокодетальных прогностических карт явлений погоды для нижнего воздушного пространства по России и ближнему зарубежью;
- система верификации прогнозов TAF (выпускаемых синоптиками официальных АМСГ РФ и ближнего зарубежья) и AUTOTAF (выпускаемых сайтом Метеоцентр.Азия) - выявление ошибок, онлайн-сопоставление с фактической погодой METAR, автоматическое внесение коррективов в прогнозы при резком отклонении фактической погоды от прогноза, подсчёт оправдываемости прогнозов по элементам и в целом;
- система обработки, анализа и отображения авиаметеорологической информации для применения провайдерами метеорологической информации.

Рекомендуем: Садовый бур ручной купить. Землебур 2 универсальный ручной бур molot.zp.ua.

Погода в Ленске - сегодня

Время (UTC), дата Ветер
(°,м/с) 
Видим.   Явления Облачность Т
(°С)
Тd
(°С)
f(%) Тe
(°С)
Pmin
(гПа)
dP
(гПа)
Po
(мм)
O2
(г/м3)
Тmin Tmax R s Состояние
почвы
12 20.06.17 220 (ЮЗ) 20000 м    ясно 
+26.4 +16 53 +37  1008.4  -0.7  736  267    +28.7       
15 20.06.17 нст () 20000 м    ясно 
+18.6 +14.7 78 +29  1009.4  0.3  736  275           
18 20.06.17 тихо ()   20000 м    ясно 
+13.2 +12.1 93 +18  1010.5  0.5  737  281           
21 20.06.17 тихо ()   20000 м    ясно 
+13.8 +12.1 89 +18  1010.6  0.1  737  280           
00 21.06.17 нст () 20000 м    ясно 
+20.7 +12.6 60 +26  1009.9  737  273  +11.4        сухая 
03 21.06.17 210 (ЮЗ) 20000 м    1/0 верхняя 
[Ci fib]
+27.4 +13.2 42 +34  1008.1  -1.1  736  267           
06 21.06.17 190 (Ю) 20000 м    3/0 верхняя 
[Ci fib]
+30.6 +9.8 28 +32  1005.8  -2  734  264           
09 21.06.17 200 (Ю) 20000 м    4/0 верхняя 
[Ci fib]
+32 +9.5 25 +33  1004.5  -1.2  733  263           
12 21.06.17 210 (ЮЗ) 20000 м    3/0 верхняя 
[Ci fib]
+29.6 +11.3 32 +33  1004  -0.6  733  264    +32.2       
15 21.06.17 270 (З) 20000 м    1/0 верхняя 
[Ci fib]
+20.3 +13.5 65 +27  1005.7  0.8  734  272           
18 21.06.17 тихо ()   20000 м    1/0 верхняя 
[Ci fib]
+15.2 +13 87 +21  1006.9  0.7  734  278           
21 21.06.17 тихо ()   20000 м    ясно 
+15 +12.5 85 +20  1007.2  0.3  735  278           
00 22.06.17 200 (Ю) 20000 м    ясно 
+22 +13.6 59 +29  1006.8  0.3  734  271  +13.7        сухая 
03 22.06.17 190 (Ю) 20000 м    1/0 верхняя 
[Ci fib]
+28.4 +13.7 41 +35  1005.5  -0.8  734  265           
06 22.06.17 180 (Ю) 20000 м    6/0 верхняя 
[Ci fib]
+32.6 +12.3 29 +37  1003.4  -1.6  733  261           
09 22.06.17 190 (Ю) 20000 м    3/0 верхняя 
[Ci fib]
+33.6 +9.8 23 +35  1001.9  -1.5  732  261           
12 22.06.17 210 (ЮЗ) 20000 м    1/0 верхняя 
[Ci fib]
+30.6 +11.6 31 +34  1001.6  -0.5  731  263    +33.6       
15 22.06.17 тихо ()   20000 м    3/0 верхняя 
[Ci fib]
+22.1 +14.7 63 +31  1002.7  0.4  731  270           
18 22.06.17 тихо ()   20000 м    4/0 верхняя 
[Ci fib]
+16.2 +14.3 89 +24  1003.1  -0.2  731  275           
21 22.06.17 тихо ()   20000 м    4/0 верхняя 
[Ci fib]
+14.5 +12.7 89 +20  1003.3  731  277           
00 23.06.17 нст () 20000 м    10/0 средняя, верхняя 
[Ac trans|Ci fib]
+17.2 +13.9 81 +26  1003  731  274  +13.5        сухая 
03 23.06.17 210 (ЮЗ) 20000 м  дым  10/4 1000 м кучево-дожд., средняя, верхняя 
[Cb cap|Ac trans|Ci fib]
+20.4 +14 67 +28  1003.4  0.7  732  272           
06 23.06.17 210 (ЮЗ) 4000 м  мгла  10/4 1000 м кучево-дожд., средняя, верхняя 
[Cb cap|Ac trans|Ci fib]
+23.1 +13.8 56 +30  1003.1  732  269           
09 23.06.17 220 (ЮЗ) 20000 м  дым  10/3 1000 м средняя, верхняя 
[Cu med, cong|Ac trans|Ci fib]
+26.2 +14.6 49 +35  1002.5  -0.4  732  266           
12 23.06.17 200 (Ю) 20000 м  дым  8/3 1500 м верхняя 
[Sc diur, vesp|Ci fib]
+26.4 +18.6 62 +43  1002.9  0.5  732  265    +26.6       
Время (UTC), дата Ветер
(°,м/с) 
Видим.   Явления Облачность Т
(°С)
Тd
(°С)
f(%) Тe
(°С)
Pmin
(гПа)
dP
(гПа)
Po
(мм)
O2
(г/м3)
Тmin Tmax R s Состояние
почвы

Для получения пояснительной информации подведите курсор к названию столбца.

ПОГОДА в Ленске - архив

Всё, что Вы хотите узнать о погоде в Ленске - удобно и подробно!

Выберите нужную дату (начиная с 1 января 2015* года) и нажмите кнопку "Найти".
Будут отображены архивные сводки погоды по пункту Ленск, начиная с указанной даты.


Отображать данные в формате CSV (для использования в таблицах Excel)


Внимание! Наш архив погоды предназначен исключительно для личного некоммерческого использования в познавательных целях. Если Вам необходимы официальные справки о состоянии погоды (для производственных, юридических, коммерческих и т.п. целей), обращайтесь в органы Росгидромета.

*Примечание: данная дата относится к архиву по метеостанциям СССР (Россия, СНГ, Балтия).
Архив по метеостанциям Зарубежной Европы и Азии (кроме Китая) хранится 10 дней, по другим регионам земного шара (Китай, Африка, Америка, Австралия, Океания) - 1 день.

Ленск - район местоположения метеостанции


Название, широта, долгота, высота метеостанции:
Ленск 60.7°ш. 114.9°д. 234 м над ур. моря [Российская Федерация]

Дополнительная информация

В oтличие oт бoльшинства пoгoдных сайтoв мы публикуем пoдрoбную метеoинфoрмацию в детальнoм прoфессиoнальнoм фoрмате.

Характеристики температуры и влажнoсти вoздуха измеряются на высoте 2 м в тени вдали oт зданий и деревьев.
Скoрoсть ветра измеряется на высoте 10 м (на урoвне рoста челoвека скoрoсть ветра ниже в 1.5-2 раза). Если метеoстанция нахoдится в гoрoде или в лесу, тo скoрoсть ветра занижена на 2-4 м/с пo сравнению с oткрытым местoм. Скoрoсть ветра над акватoриями крупных рек и oзёр, а также на вершинах хoлмoв на 2-5 м/с выше, чем в oбычных услoвиях.
Атмoсфернoе давление в разных тoчках местнoсти мoжет значительнo oтличаться oт давления на метеoстанции, в зависимoсти oт услoвий рельефа (при пoдъёме на 10 м давление пoнижается примернo на 1 мм рт.ст.).